Lovelock, NV

5:47 PM PDT on September 19, 2017 (GMT -0700)
Derby

Weather History for KLOL - April, 2014

Change the Weather History Date:

Saturday, April 12, 2014

  Actual Average Record
Temperature  
Mean Temperature 57 °F -  
Max Temperature 78 °F 64 °F 83 °F (1988)
Min Temperature 39 °F 31 °F 19 °F (2001)
Degree Days  
Heating Degree Days 8    
Growing Degree Days 7 (Base 50)    
Moisture  
Dew Point 21 °F    
Average Humidity 24    
Maximum Humidity 45    
Minimum Humidity 9    
Precipitation  
Precipitation 0.00 in - - ()
Sea Level Pressure  
Sea Level Pressure 29.74 in    
Wind  
Wind Speed 9 mph (NNW)    
Max Wind Speed 22 mph    
Max Gust Speed 30 mph    
Visibility 10 miles    
Events Rain    
Averages and records for this station are not official NWS values.
T = Trace of Precipitation, MM = Missing Value Source: NWS Daily Summary

Daily Weather History Graph

Daily Weather History Graph

Search for Another Location

Airport or City:

Trip Planner

Search our weather history database for the weather conditions in past years. The results will help you decide how hot, cold, wet, or windy it might be!

Date:

Astronomy

Apr. 12, 2014 Rise Set
Actual Time 6:20 AM PDT 7:29 PM PDT
Civil Twilight 5:52 AM PDT 7:57 PM PDT
Nautical Twilight 5:19 AM PDT 8:31 PM PDT
Astronomical Twilight 4:44 AM PDT 9:06 PM PDT
Moon 5:13 PM PDT (4/12) 4:50 AM PDT (4/12)
Length of Visible Light 14h 04m
Length of Day
13h 09m
Waxing Gibbous, 93% of the Moon is Illuminated
Apr 12
Waxing Gibbous
Apr 15
Full
Apr 22
Last Quarter
Apr 28
New
May 6
First Quarter

Hourly Weather History & Observations

Time (PDT) Temp. Windchill Dew Point Humidity Pressure Visibility Wind Dir Wind Speed Gust Speed Precip Events Conditions
12:53 AM 53.1 °F - 15.1 °F 22% 29.77 in 10.0 mi NE 9.2 mph - N/A   Clear
1:53 AM 46.0 °F 41.0 °F 17.1 °F 31% 29.77 in 10.0 mi East 10.4 mph - N/A   Clear
2:53 AM 53.1 °F - 23.0 °F 31% 29.75 in 10.0 mi NNE 9.2 mph - N/A   Clear
3:53 AM 51.1 °F - 27.0 °F 39% 29.76 in 10.0 mi North 5.8 mph - N/A   Clear
4:53 AM 48.9 °F - 25.0 °F 39% 29.76 in 10.0 mi South 3.5 mph - N/A   Clear
5:53 AM 39.0 °F 34.8 °F 19.0 °F 45% 29.79 in 10.0 mi SSW 5.8 mph - N/A   Clear
6:53 AM 39.9 °F 35.8 °F 19.0 °F 43% 29.80 in 10.0 mi WSW 5.8 mph - N/A   Clear
7:53 AM 48.0 °F - 24.1 °F 39% 29.82 in 10.0 mi West 3.5 mph - N/A   Clear
8:53 AM 57.9 °F - 28.0 °F 32% 29.80 in 10.0 mi Calm Calm - N/A   Scattered Clouds
9:53 AM 64.0 °F - 28.9 °F 27% 29.79 in 10.0 mi Variable 4.6 mph - N/A   Clear
10:53 AM 66.9 °F - 30.0 °F 25% 29.79 in 10.0 mi Variable 3.5 mph - N/A   Clear
11:53 AM 69.1 °F - 28.9 °F 22% 29.78 in 10.0 mi North 4.6 mph - N/A   Scattered Clouds
12:53 PM 72.0 °F - 30.0 °F 21% 29.74 in 10.0 mi Variable 6.9 mph - N/A   Scattered Clouds
1:53 PM 75.9 °F - 30.0 °F 19% 29.72 in 10.0 mi NNW 15.0 mph - N/A   Scattered Clouds
2:43 PM 75.0 °F - 30.9 °F 20% 29.77 in 10.0 mi WNW 17.3 mph 25.3 mph N/A   Mostly Cloudy
2:53 PM 75.0 °F - 30.9 °F 20% 29.68 in 10.0 mi NW 10.4 mph 21.9 mph N/A   Mostly Cloudy
3:53 PM 75.9 °F - 28.0 °F 17% 29.66 in 10.0 mi NW 13.8 mph 25.3 mph 0.00 in Rain Light Rain
4:53 PM 75.9 °F - 26.1 °F 16% 29.65 in 10.0 mi West 21.9 mph 25.3 mph 0.00 in   Mostly Cloudy
5:53 PM 75.9 °F - 21.9 °F 13% 29.65 in 10.0 mi NW 20.7 mph 29.9 mph N/A   Clear
6:53 PM 73.0 °F - 18.0 °F 12% 29.65 in 10.0 mi NW 16.1 mph 28.8 mph N/A   Clear
7:53 PM 69.1 °F - 16.0 °F 13% 29.66 in 10.0 mi NW 17.3 mph 25.3 mph N/A   Clear
8:53 PM 63.0 °F - 7.0 °F 11% 29.70 in 9.0 mi NNE 19.6 mph 27.6 mph N/A   Partly Cloudy
9:53 PM 60.1 °F - 1.9 °F 10% 29.74 in 10.0 mi NNE 18.4 mph 29.9 mph N/A   Mostly Cloudy
10:53 PM 57.9 °F - -2.0 °F 9% 29.79 in 10.0 mi NNE 12.7 mph - N/A   Scattered Clouds
11:53 PM 54.0 °F - 1.0 °F 12% 29.83 in 10.0 mi Calm Calm - N/A   Clear